Time,TemperatureF,DewpointF,PressureIn,WindDirection,WindDirectionDegrees,WindSpeedMPH,WindSpeedGustMPH,Humidity,HourlyPrecipIn,Conditions,Clouds,dailyrainin,SoftwareType,DateUTC
2013-05-29 00:12:00,74.4,68.0,29.90,SSW,198,7.0,11.0,79,0.00,,,0.00,weatherlink.com 1.10,2013-05-29 04:12:00,
2013-05-29 00:27:00,74.2,67.0,29.90,SSW,197,6.0,12.0,79,0.00,,,0.00,weatherlink.com 1.10,2013-05-29 04:27:00,
2013-05-29 00:42:00,74.4,67.0,29.90,South,190,6.0,12.0,78,0.00,,,0.00,weatherlink.com 1.10,2013-05-29 04:42:00,
2013-05-29 00:57:00,74.2,67.0,29.91,SSW,202,4.0,11.0,78,0.00,,,0.00,weatherlink.com 1.10,2013-05-29 04:57:00,
2013-05-29 01:12:00,74.0,67.0,29.91,South,178,7.0,9.0,79,0.00,,,0.00,weatherlink.com 1.10,2013-05-29 05:12:00,
2013-05-29 01:27:00,73.7,67.0,29.90,SW,221,3.0,9.0,79,0.00,,,0.00,weatherlink.com 1.10,2013-05-29 05:27:00,
2013-05-29 01:42:00,73.7,67.0,29.90,SSW,194,3.0,9.0,79,0.00,,,0.00,weatherlink.com 1.10,2013-05-29 05:42:00,
2013-05-29 01:58:00,73.6,66.0,29.89,SSW,200,8.0,16.0,78,0.00,,,0.00,weatherlink.com 1.10,2013-05-29 05:58:00,
2013-05-29 02:13:00,73.3,66.0,29.89,SSW,207,6.0,14.0,78,0.00,,,0.00,weatherlink.com 1.10,2013-05-29 06:13:00,
2013-05-29 02:28:00,73.0,66.0,29.89,SSW,211,6.0,12.0,79,0.00,,,0.00,weatherlink.com 1.10,2013-05-29 06:28:00,
2013-05-29 02:43:00,72.8,66.0,29.89,SSW,194,7.0,13.0,78,0.00,,,0.00,weatherlink.com 1.10,2013-05-29 06:43:00,
2013-05-29 02:58:00,72.8,65.0,29.90,South,183,6.0,13.0,77,0.00,,,0.00,weatherlink.com 1.10,2013-05-29 06:58:00,
2013-05-29 03:13:00,73.0,65.0,29.90,WSW,242,3.0,13.0,76,0.00,,,0.00,weatherlink.com 1.10,2013-05-29 07:13:00,
2013-05-29 03:29:00,72.7,65.0,29.90,South,189,8.0,12.0,76,0.00,,,0.00,weatherlink.com 1.10,2013-05-29 07:29:00,
2013-05-29 03:44:00,72.7,65.0,29.91,SW,223,4.0,13.0,76,0.00,,,0.00,weatherlink.com 1.10,2013-05-29 07:44:00,
2013-05-29 04:00:00,72.8,64.0,29.91,South,182,8.0,15.0,75,0.00,,,0.00,weatherlink.com 1.10,2013-05-29 08:00:00,
2013-05-29 04:15:00,72.6,64.0,29.90,SSW,206,8.0,12.0,74,0.00,,,0.00,weatherlink.com 1.10,2013-05-29 08:15:00,
2013-05-29 04:30:00,72.3,64.0,29.91,SW,219,5.0,17.0,74,0.00,,,0.00,weatherlink.com 1.10,2013-05-29 08:30:00,
2013-05-29 04:45:00,72.0,63.0,29.91,SW,216,6.0,13.0,74,0.00,,,0.00,weatherlink.com 1.10,2013-05-29 08:45:00,
2013-05-29 05:02:00,71.6,63.0,29.91,WSW,238,7.0,15.0,75,0.00,,,0.00,weatherlink.com 1.10,2013-05-29 09:02:00,
2013-05-29 05:17:00,71.6,63.0,29.91,SSW,203,6.0,13.0,74,0.00,,,0.00,weatherlink.com 1.10,2013-05-29 09:17:00,
2013-05-29 05:32:00,71.6,63.0,29.91,South,190,5.0,12.0,74,0.00,,,0.00,weatherlink.com 1.10,2013-05-29 09:32:00,
2013-05-29 05:46:00,71.3,63.0,29.91,SW,229,6.0,16.0,74,0.00,,,0.00,weatherlink.com 1.10,2013-05-29 09:46:00,
2013-05-29 06:02:00,71.1,62.0,29.91,South,189,6.0,16.0,74,0.00,,,0.00,weatherlink.com 1.10,2013-05-29 10:02:00,
2013-05-29 06:17:00,70.7,62.0,29.91,SW,233,10.0,13.0,75,0.00,,,0.00,weatherlink.com 1.10,2013-05-29 10:17:00,
2013-05-29 06:32:00,70.5,62.0,29.92,SSW,192,3.0,14.0,75,0.00,,,0.00,weatherlink.com 1.10,2013-05-29 10:32:00,
2013-05-29 06:47:00,70.7,62.0,29.92,WSW,238,7.0,14.0,74,0.00,,,0.00,weatherlink.com 1.10,2013-05-29 10:47:00,
2013-05-29 07:03:00,70.8,62.0,29.92,SW,221,8.0,17.0,74,0.00,,,0.00,weatherlink.com 1.10,2013-05-29 11:03:00,
2013-05-29 07:18:00,70.8,62.0,29.93,SW,218,13.0,17.0,74,0.00,,,0.00,weatherlink.com 1.10,2013-05-29 11:18:00,
2013-05-29 07:33:00,70.8,63.0,29.93,SSW,207,4.0,16.0,75,0.00,,,0.00,weatherlink.com 1.10,2013-05-29 11:33:00,
2013-05-29 07:48:00,70.9,63.0,29.94,SW,218,6.0,14.0,75,0.00,,,0.00,weatherlink.com 1.10,2013-05-29 11:48:00,
2013-05-29 08:04:00,71.0,63.0,29.94,SSW,203,4.0,15.0,75,0.00,,,0.00,weatherlink.com 1.10,2013-05-29 12:04:00,
2013-05-29 08:19:00,71.5,63.0,29.94,SSW,197,7.0,16.0,75,0.00,,,0.00,weatherlink.com 1.10,2013-05-29 12:19:00,
2013-05-29 08:34:00,72.1,64.0,29.94,SSW,193,6.0,14.0,75,0.00,,,0.00,weatherlink.com 1.10,2013-05-29 12:34:00,
2013-05-29 08:49:00,72.5,64.0,29.95,SW,223,3.0,11.0,75,0.00,,,0.00,weatherlink.com 1.10,2013-05-29 12:49:00,
2013-05-29 09:05:00,72.6,64.0,29.95,SW,231,8.0,14.0,75,0.00,,,0.00,weatherlink.com 1.10,2013-05-29 13:05:00,
2013-05-29 09:20:00,72.8,64.0,29.95,WSW,238,8.0,15.0,75,0.00,,,0.00,weatherlink.com 1.10,2013-05-29 13:20:00,
2013-05-29 09:37:00,73.6,65.0,29.95,SW,219,2.0,15.0,75,0.00,,,0.00,weatherlink.com 1.10,2013-05-29 13:37:00,
2013-05-29 09:52:00,74.1,66.0,29.96,SSE,163,7.0,11.0,75,0.00,,,0.00,weatherlink.com 1.10,2013-05-29 13:52:00,
2013-05-29 10:07:00,75.0,66.0,29.95,SW,221,8.0,14.0,74,0.00,,,0.00,weatherlink.com 1.10,2013-05-29 14:07:00,
2013-05-29 10:22:00,76.1,66.0,29.95,WSW,248,4.0,18.0,71,0.00,,,0.00,weatherlink.com 1.10,2013-05-29 14:22:00,
2013-05-29 10:37:00,76.5,66.0,29.95,WSW,251,9.0,14.0,71,0.00,,,0.00,weatherlink.com 1.10,2013-05-29 14:37:00,
2013-05-29 10:52:00,76.8,66.0,29.95,SSW,202,5.0,16.0,70,0.00,,,0.00,weatherlink.com 1.10,2013-05-29 14:52:00,
2013-05-29 11:07:00,77.2,67.0,29.96,SW,220,6.0,17.0,70,0.00,,,0.00,weatherlink.com 1.10,2013-05-29 15:07:00,
2013-05-29 11:22:00,77.8,67.0,29.97,WSW,239,15.0,17.0,69,0.00,,,0.00,weatherlink.com 1.10,2013-05-29 15:22:00,
2013-05-29 11:37:00,78.4,67.0,29.97,SW,223,11.0,16.0,69,0.00,,,0.00,weatherlink.com 1.10,2013-05-29 15:37:00,
2013-05-29 11:53:00,79.3,68.0,29.97,SW,232,5.0,14.0,69,0.00,,,0.00,weatherlink.com 1.10,2013-05-29 15:53:00,
2013-05-29 12:09:00,80.1,68.0,29.98,WSW,250,7.0,17.0,67,0.00,,,0.00,weatherlink.com 1.10,2013-05-29 16:09:00,
2013-05-29 12:23:00,80.2,68.0,29.98,SSW,202,7.0,22.0,66,0.00,,,0.00,weatherlink.com 1.10,2013-05-29 16:23:00,
2013-05-29 12:42:00,80.5,69.0,29.98,SW,235,8.0,21.0,67,0.00,,,0.00,weatherlink.com 1.10,2013-05-29 16:42:00,
2013-05-29 12:54:00,81.1,70.0,29.98,SSW,195,6.0,18.0,69,0.00,,,0.00,weatherlink.com 1.10,2013-05-29 16:54:00,
2013-05-29 13:09:00,80.9,69.0,29.99,SW,234,12.0,17.0,68,0.00,,,0.00,weatherlink.com 1.10,2013-05-29 17:09:00,
2013-05-29 13:24:00,81.4,69.0,29.98,SW,234,10.0,17.0,65,0.00,,,0.00,weatherlink.com 1.10,2013-05-29 17:24:00,
2013-05-29 13:39:00,81.9,69.0,29.98,WSW,248,9.0,15.0,65,0.00,,,0.00,weatherlink.com 1.10,2013-05-29 17:39:00,
2013-05-29 13:55:00,81.1,69.0,29.98,WSW,243,13.0,18.0,66,0.00,,,0.00,weatherlink.com 1.10,2013-05-29 17:55:00,
2013-05-29 14:11:00,81.3,69.0,29.97,West,267,5.0,17.0,67,0.00,,,0.00,weatherlink.com 1.10,2013-05-29 18:11:00,
2013-05-29 14:25:00,82.0,69.0,29.98,SW,227,7.0,17.0,64,0.00,,,0.00,weatherlink.com 1.10,2013-05-29 18:25:00,
2013-05-29 14:40:00,82.5,69.0,29.97,SW,229,9.0,12.0,63,0.00,,,0.00,weatherlink.com 1.10,2013-05-29 18:40:00,
2013-05-29 14:57:00,82.5,68.0,29.98,SSW,199,12.0,17.0,62,0.00,,,0.00,weatherlink.com 1.10,2013-05-29 18:57:00,
2013-05-29 15:12:00,83.0,69.0,29.98,West,261,5.0,20.0,62,0.00,,,0.00,weatherlink.com 1.10,2013-05-29 19:12:00,
2013-05-29 15:27:00,83.6,66.0,29.98,WSW,253,9.0,17.0,56,0.00,,,0.00,weatherlink.com 1.10,2013-05-29 19:27:00,
2013-05-29 15:42:00,83.7,67.0,29.98,SW,233,2.0,18.0,58,0.00,,,0.00,weatherlink.com 1.10,2013-05-29 19:42:00,
2013-05-29 15:57:00,83.7,68.0,29.97,SW,216,10.0,17.0,59,0.00,,,0.00,weatherlink.com 1.10,2013-05-29 19:57:00,
2013-05-29 16:12:00,84.0,67.0,29.97,WSW,252,6.0,18.0,57,0.00,,,0.00,weatherlink.com 1.10,2013-05-29 20:12:00,
2013-05-29 16:27:00,83.9,67.0,29.97,SW,221,6.0,12.0,57,0.00,,,0.00,weatherlink.com 1.10,2013-05-29 20:27:00,
2013-05-29 16:43:00,84.6,67.0,29.97,WSW,237,1.0,13.0,56,0.00,,,0.00,weatherlink.com 1.10,2013-05-29 20:43:00,
2013-05-29 16:58:00,83.9,66.0,29.96,SSW,209,4.0,13.0,55,0.00,,,0.00,weatherlink.com 1.10,2013-05-29 20:58:00,
2013-05-29 17:13:00,82.9,67.0,29.96,WSW,244,7.0,10.0,59,0.00,,,0.00,weatherlink.com 1.10,2013-05-29 21:13:00,
2013-05-29 17:28:00,82.4,67.0,29.96,SSW,204,4.0,10.0,59,0.00,,,0.00,weatherlink.com 1.10,2013-05-29 21:28:00,
2013-05-29 17:44:00,82.5,67.0,29.96,SSW,207,3.0,11.0,60,0.00,,,0.00,weatherlink.com 1.10,2013-05-29 21:44:00,
2013-05-29 17:59:00,82.3,66.0,29.96,WSW,254,7.0,9.0,59,0.00,,,0.00,weatherlink.com 1.10,2013-05-29 21:59:00,
2013-05-29 18:14:00,82.1,66.0,29.96,SSW,212,7.0,12.0,59,0.00,,,0.00,weatherlink.com 1.10,2013-05-29 22:14:00,
2013-05-29 18:29:00,82.1,66.0,29.95,South,181,5.0,9.0,59,0.00,,,0.00,weatherlink.com 1.10,2013-05-29 22:29:00,
2013-05-29 18:45:00,81.9,66.0,29.95,SW,214,4.0,9.0,58,0.00,,,0.00,weatherlink.com 1.10,2013-05-29 22:45:00,
2013-05-29 19:00:00,81.4,66.0,29.95,SSW,196,2.0,8.0,60,0.00,,,0.00,weatherlink.com 1.10,2013-05-29 23:00:00,
2013-05-29 19:30:00,81.1,66.0,29.95,South,185,4.0,6.0,61,0.00,,,0.00,weatherlink.com 1.10,2013-05-29 23:30:00,
2013-05-29 19:46:00,81.1,67.0,29.95,SSE,168,4.0,6.0,62,0.00,,,0.00,weatherlink.com 1.10,2013-05-29 23:46:00,
2013-05-29 20:02:00,80.9,66.0,29.94,South,187,3.0,5.0,61,0.00,,,0.00,weatherlink.com 1.10,2013-05-30 00:02:00,
2013-05-29 20:17:00,80.5,66.0,29.94,South,188,4.0,8.0,62,0.00,,,0.00,weatherlink.com 1.10,2013-05-30 00:17:00,
2013-05-29 20:32:00,79.7,67.0,29.94,South,186,2.0,5.0,65,0.00,,,0.00,weatherlink.com 1.10,2013-05-30 00:32:00,
2013-05-29 20:47:00,78.6,67.0,29.94,South,186,0.0,5.0,68,0.00,,,0.00,weatherlink.com 1.10,2013-05-30 00:47:00,
2013-05-29 21:02:00,77.5,67.0,29.95,South,186,0.0,3.0,70,0.00,,,0.00,weatherlink.com 1.10,2013-05-30 01:02:00,
2013-05-29 21:17:00,75.9,66.0,29.94,South,186,0.0,2.0,72,0.00,,,0.00,weatherlink.com 1.10,2013-05-30 01:17:00,
2013-05-29 21:33:00,74.1,66.0,29.94,South,186,0.0,0.0,76,0.00,,,0.00,weatherlink.com 1.10,2013-05-30 01:33:00,
2013-05-29 21:48:00,72.5,65.0,29.95,South,186,0.0,0.0,78,0.00,,,0.00,weatherlink.com 1.10,2013-05-30 01:48:00,
2013-05-29 22:03:00,71.4,65.0,29.95,South,186,0.0,0.0,80,0.00,,,0.00,weatherlink.com 1.10,2013-05-30 02:03:00,
2013-05-29 22:19:00,70.5,65.0,29.97,South,186,0.0,0.0,82,0.00,,,0.00,weatherlink.com 1.10,2013-05-30 02:19:00,
2013-05-29 22:34:00,69.8,64.0,29.97,South,186,0.0,0.0,83,0.00,,,0.00,weatherlink.com 1.10,2013-05-30 02:34:00,
2013-05-29 22:49:00,69.4,64.0,29.97,South,186,0.0,0.0,84,0.00,,,0.00,weatherlink.com 1.10,2013-05-30 02:49:00,
2013-05-29 23:04:00,68.9,64.0,29.97,South,186,0.0,0.0,84,0.00,,,0.00,weatherlink.com 1.10,2013-05-30 03:04:00,
2013-05-29 23:20:00,69.2,64.0,29.96,South,186,0.0,0.0,82,0.00,,,0.00,weatherlink.com 1.10,2013-05-30 03:20:00,
2013-05-29 23:35:00,69.6,64.0,29.97,South,186,0.0,0.0,82,0.00,,,0.00,weatherlink.com 1.10,2013-05-30 03:35:00,
2013-05-29 23:50:00,69.7,64.0,29.97,South,186,0.0,0.0,82,0.00,,,0.00,weatherlink.com 1.10,2013-05-30 03:50:00,